Location: Goudex
(43.3760°N, 0.9543°E)
Time: 03:17:02
(UTC+00:00)

ATLAS 2AS CENTAUR R/B - Pass Details

Date: 20 November 2019
Orbit: 926 x 1286 km, 63.7° (Epoch: 02 December)

Event Time Altitude Azimuth Distance (km) Brightness Sun altitude
Exits shadow 03:10:59 34° 27° (NNE) 1,876 4.1 -40.5°
Maximum altitude 03:11:33 34° 36° (NE) 1,855 4.1 -40.4°
Drops below altitude 10° 03:18:01 10° 100° (E) 3,001 5.7 -39.2°
Sets 03:20:54 0° 109° (ESE) 3,900 6.4 -38.7°
